,,PA_Meas_PMT16A,,PR_Meas_QMR101_102,,RH_Meas_QMH101,,SR_Meas_QMS101,,TA_Meas_QMH101,,GenWind,,GenWind,
time,status,PA,status,PR,status,RH,status,SR,status,TA,status,DirAvg,status,SpdAvg,
2016-02-01, 07:39:04,VALID,918.038,VALID,0,VALID,104,VALID,138.921,VALID,20.0928,VALID,81,VALID,0,
2016-02-01, 07:40:04,VALID,918.034,VALID,0,VALID,104,VALID,127.748,VALID,20.1318,VALID,69,VALID,0,
2016-02-01, 07:41:04,VALID,918.004,VALID,0,VALID,104,VALID,147.194,VALID,20.1318,VALID,69,VALID,0,
2016-02-01, 07:42:04,VALID,918.046,VALID,0,VALID,104,VALID,147.839,VALID,20.1708,VALID,69,VALID,0,
2016-02-01, 07:43:04,VALID,918.064,VALID,0,VALID,104,VALID,169.864,VALID,20.3074,VALID,69,VALID,0,
2016-02-01, 07:44:04,VALID,918.053,VALID,0,VALID,104,VALID,177.17,VALID,20.5219,VALID,69,VALID,0,
2016-02-01, 07:45:04,VALID,918.091,VALID,0,VALID,104,VALID,179.534,VALID,20.717,VALID,69,VALID,0,
2016-02-01, 07:46:04,VALID,918.102,VALID,0,VALID,104,VALID,181.683,VALID,20.8145,VALID,69,VALID,0,
2016-02-01, 07:47:04,VALID,918.111,VALID,0,VALID,104,VALID,183.295,VALID,20.9136,VALID,69,VALID,0,
2016-02-01, 07:48:04,VALID,918.103,VALID,0,VALID,104,VALID,187.27,VALID,20.9706,VALID,83,VALID,0,
2016-02-01, 07:49:04,VALID,918.13,VALID,0,VALID,104,VALID,201.022,VALID,20.9706,VALID,88,VALID,0,
2016-02-01, 07:50:04,VALID,918.147,VALID,0,VALID,104,VALID,212.948,VALID,20.9706,VALID,88,VALID,0,
2016-02-01, 07:51:04,VALID,918.161,VALID,0,VALID,104,VALID,209.94,VALID,20.891,VALID,88,VALID,0,
2016-02-01, 07:52:04,VALID,918.175,VALID,0,VALID,104,VALID,209.08,VALID,20.9901,VALID,89,VALID,0,
2016-02-01, 07:53:04,VALID,918.204,VALID,0,VALID,104,VALID,198.014,VALID,21.0486,VALID,104,VALID,0,
2016-02-01, 07:54:04,VALID,918.17,VALID,0,VALID,104,VALID,192.535,VALID,20.9105,VALID,118,VALID,0,
2016-02-01, 07:55:04,VALID,918.198,VALID,0,VALID,104,VALID,201.989,VALID,20.834,VALID,156,VALID,1.14531,
2016-02-01, 07:56:04,VALID,918.218,VALID,0,VALID,104,VALID,206.18,VALID,20.7739,VALID,147,VALID,0.800391,
2016-02-01, 07:57:04,VALID,918.21,VALID,0,VALID,104,VALID,218.643,VALID,20.8145,VALID,119,VALID,0.957812,
2016-02-01, 07:58:04,VALID,918.243,VALID,0,VALID,104,VALID,222.726,VALID,20.8129,VALID,141,VALID,0.913672,
2016-02-01, 07:59:04,VALID,918.227,VALID,0,VALID,104,VALID,228.957,VALID,20.8535,VALID,161,VALID,0.441016,
2016-02-01, 08:00:04,VALID,918.225,VALID,0,VALID,104,VALID,222.403,VALID,20.9316,VALID,152,VALID,0,
2016-02-01, 08:01:04,VALID,918.242,VALID,0,VALID,104,VALID,227.023,VALID,21.0665,VALID,151,VALID,0,
2016-02-01, 08:02:04,VALID,918.269,VALID,0,VALID,104,VALID,246.577,VALID,21.2258,VALID,151,VALID,0,
2016-02-01, 08:03:04,VALID,918.282,VALID,0,VALID,104,VALID,254.421,VALID,21.3217,VALID,150,VALID,0,
2016-02-01, 08:04:04,VALID,918.287,VALID,0,VALID,104,VALID,252.916,VALID,21.1852,VALID,119,VALID,0,
2016-02-01, 08:05:04,VALID,918.285,VALID,0,VALID,104,VALID,256.677,VALID,21.1836,VALID,107,VALID,0,
2016-02-01, 08:06:04,VALID,918.301,VALID,0,VALID,104,VALID,276.554,VALID,21.2632,VALID,128,VALID,0,
2016-02-01, 08:07:04,VALID,918.317,VALID,0,VALID,104,VALID,287.298,VALID,21.2827,VALID,146,VALID,0,
2016-02-01, 08:08:04,VALID,918.313,VALID,0,VALID,104,VALID,296.43,VALID,21.3201,VALID,142,VALID,0,
2016-02-01, 08:09:04,VALID,918.333,VALID,0,VALID,104,VALID,297.934,VALID,21.4973,VALID,128,VALID,0,
2016-02-01, 08:10:04,VALID,918.272,VALID,0,VALID,104,VALID,294.281,VALID,21.5932,VALID,102,VALID,0,
2016-02-01, 08:11:04,VALID,918.278,VALID,0,VALID,104,VALID,299.761,VALID,21.7298,VALID,122,VALID,0,
2016-02-01, 08:12:04,VALID,918.289,VALID,0,VALID,104,VALID,301.91,VALID,21.7883,VALID,139,VALID,0,
2016-02-01, 08:13:04,VALID,918.249,VALID,0,VALID,104,VALID,302.984,VALID,21.8859,VALID,96,VALID,0.757031,
2016-02-01, 08:14:04,VALID,918.258,VALID,0,VALID,104,VALID,301.158,VALID,21.9444,VALID,137,VALID,1.76563,
2016-02-01, 08:15:04,VALID,918.251,VALID,0,VALID,104,VALID,297.827,VALID,22.003,VALID,103,VALID,1.23555,
2016-02-01, 08:16:04,VALID,918.281,VALID,0,VALID,104,VALID,297.397,VALID,22.1413,VALID,144,VALID,0.328125,
2016-02-01, 08:17:04,VALID,918.226,VALID,0,VALID,104,VALID,315.017,VALID,22.2159,VALID,106,VALID,0.188281,
2016-02-01, 08:18:04,VALID,918.262,VALID,0,VALID,103.084,VALID,315.877,VALID,22.3542,VALID,107,VALID,0,
2016-02-01, 08:19:04,VALID,918.287,VALID,0,VALID,102.985,VALID,317.489,VALID,22.5103,VALID,145,VALID,0,
2016-02-01, 08:20:04,VALID,918.261,VALID,0,VALID,101.369,VALID,322.216,VALID,22.5086,VALID,143,VALID,0,
2016-02-01, 08:21:04,VALID,918.267,VALID,0,VALID,101.026,VALID,319.53,VALID,22.5086,VALID,135,VALID,0,
2016-02-01, 08:22:04,VALID,918.295,VALID,0,VALID,101.628,VALID,325.117,VALID,22.5103,VALID,167,VALID,0,
2016-02-01, 08:23:04,VALID,918.295,VALID,0,VALID,100.004,VALID,333.927,VALID,22.5867,VALID,93,VALID,0,
2016-02-01, 08:24:04,VALID,918.285,VALID,0,VALID,101.094,VALID,333.282,VALID,22.686,VALID,129,VALID,0,
2016-02-01, 08:25:04,VALID,918.265,VALID,0,VALID,100.408,VALID,244.429,VALID,22.7836,VALID,128,VALID,0,
2016-02-01, 08:26:04,VALID,918.28,VALID,0,VALID,99.5008,VALID,169.435,VALID,22.8421,VALID,135,VALID,0,
2016-02-01, 08:27:04,VALID,918.277,VALID,0,VALID,100.332,VALID,157.831,VALID,22.9397,VALID,117,VALID,0,
2016-02-01, 08:28:04,VALID,918.252,VALID,0,VALID,98.9367,VALID,159.335,VALID,22.9202,VALID,129,VALID,0,
2016-02-01, 08:29:04,VALID,918.271,VALID,0,VALID,90.7339,VALID,164.492,VALID,22.8404,VALID,147,VALID,0,
2016-02-01, 08:30:04,VALID,918.238,VALID,0,VALID,96.5582,VALID,174.162,VALID,22.7818,VALID,172,VALID,0,
2016-02-01, 08:31:04,VALID,918.218,VALID,0,VALID,96.886,VALID,191.245,VALID,22.7445,VALID,157,VALID,0,
2016-02-01, 08:32:04,VALID,918.221,VALID,0,VALID,97.5111,VALID,226.271,VALID,22.7233,VALID,174,VALID,0,
2016-02-01, 08:33:04,VALID,918.236,VALID,0,VALID,89.8191,VALID,286.546,VALID,22.7233,VALID,162,VALID,0,
2016-02-01, 08:34:04,VALID,918.255,VALID,0,VALID,90.9931,VALID,314.05,VALID,22.7818,VALID,174,VALID,0,
2016-02-01, 08:35:04,VALID,918.257,VALID,0,VALID,92.3882,VALID,308.893,VALID,22.8014,VALID,134,VALID,0,
2016-02-01, 08:36:04,VALID,918.287,VALID,0,VALID,90.2917,VALID,311.687,VALID,22.938,VALID,100,VALID,0.214453,
2016-02-01, 08:37:04,VALID,918.273,VALID,0,VALID,94.2635,VALID,322.323,VALID,23.0941,VALID,158,VALID,0,
2016-02-01, 08:38:04,VALID,918.328,VALID,0,VALID,83.6594,VALID,328.018,VALID,23.2112,VALID,158,VALID,1.32617,
2016-02-01, 08:39:04,VALID,918.326,VALID,0,VALID,84.1473,VALID,362.936,VALID,23.2112,VALID,166,VALID,0.767969,
2016-02-01, 08:40:04,VALID,918.329,VALID,0,VALID,85.3213,VALID,378.515,VALID,23.3674,VALID,164,VALID,0,
2016-02-01, 08:41:04,VALID,918.365,VALID,0,VALID,83.0724,VALID,391.838,VALID,23.5821,VALID,147,VALID,0,
2016-02-01, 08:42:04,VALID,918.321,VALID,0,VALID,81.7764,VALID,394.631,VALID,23.6016,VALID,149,VALID,0,
2016-02-01, 08:43:04,VALID,918.36,VALID,0,VALID,79.9544,VALID,392.053,VALID,23.5022,VALID,151,VALID,0,
2016-02-01, 08:44:04,VALID,918.337,VALID,0,VALID,81.1131,VALID,393.772,VALID,23.5626,VALID,157,VALID,0,
2016-02-01, 08:45:04,VALID,918.376,VALID,0,VALID,81.7383,VALID,406.557,VALID,23.6406,VALID,157,VALID,0,
2016-02-01, 08:46:04,VALID,918.346,VALID,0,VALID,82.1804,VALID,400.326,VALID,23.6779,VALID,139,VALID,0,
2016-02-01, 08:47:04,VALID,918.336,VALID,0,VALID,80.9531,VALID,393.449,VALID,23.756,VALID,168,VALID,0,
2016-02-01, 08:48:04,VALID,918.37,VALID,0,VALID,80.2822,VALID,412.467,VALID,23.795,VALID,154,VALID,0.0410156,
2016-02-01, 08:49:04,VALID,918.385,VALID,0,VALID,82.2338,VALID,429.765,VALID,23.8536,VALID,183,VALID,0,
2016-02-01, 08:50:04,VALID,918.361,VALID,0,VALID,79.619,VALID,437.823,VALID,23.9707,VALID,181,VALID,0.210938,
2016-02-01, 08:51:04,VALID,918.366,VALID,0,VALID,78.4373,VALID,437.5,VALID,24.0097,VALID,162,VALID,0,
2016-02-01, 08:52:04,VALID,918.374,VALID,0,VALID,78.3001,VALID,444.591,VALID,23.9707,VALID,141,VALID,0.0234375,
2016-02-01, 08:53:04,VALID,918.344,VALID,0,VALID,78.5212,VALID,449.211,VALID,23.9725,VALID,158,VALID,1.6125,
2016-02-01, 08:54:04,VALID,918.355,VALID,0,VALID,78.7499,VALID,461.567,VALID,23.9725,VALID,155,VALID,0.733594,
2016-02-01, 08:55:04,VALID,918.358,VALID,0,VALID,78.605,VALID,474.46,VALID,23.992,VALID,148,VALID,0.765625,
2016-02-01, 08:56:04,VALID,918.328,VALID,0,VALID,79.0853,VALID,475.535,VALID,24.0115,VALID,102,VALID,0,
2016-02-01, 08:57:04,VALID,918.326,VALID,0,VALID,77.0575,VALID,483.485,VALID,24.0896,VALID,148,VALID,0.836719,
2016-02-01, 08:58:04,VALID,918.328,VALID,0,VALID,77.7741,VALID,496.808,VALID,24.0292,VALID,137,VALID,1.58203,
2016-02-01, 08:59:04,VALID,918.297,VALID,0,VALID,76.6535,VALID,491.006,VALID,24.0683,VALID,154,VALID,0.136719,
2016-02-01, 09:00:04,VALID,918.265,VALID,0,VALID,76.8745,VALID,318.456,VALID,24.1092,VALID,168,VALID,0,
2016-02-01, 09:01:04,VALID,918.27,VALID,0,VALID,78.3763,VALID,286.223,VALID,24.2226,VALID,158,VALID,0,
2016-02-01, 09:02:04,VALID,918.273,VALID,0,VALID,76.2723,VALID,294.604,VALID,24.2031,VALID,168,VALID,1.5543,
2016-02-01, 09:03:04,VALID,918.244,VALID,0,VALID,76.3714,VALID,346.713,VALID,24.1055,VALID,161,VALID,0.0570313,
2016-02-01, 09:04:04,VALID,918.268,VALID,0,VALID,77.9723,VALID,452.757,VALID,24.1055,VALID,138,VALID,0,
2016-02-01, 09:05:04,VALID,918.326,VALID,0,VALID,77.5378,VALID,526.354,VALID,24.2617,VALID,134,VALID,0,
2016-02-01, 09:06:04,VALID,918.303,VALID,0,VALID,74.4808,VALID,560.95,VALID,24.4587,VALID,136,VALID,0.938672,
2016-02-01, 09:07:04,VALID,918.299,VALID,0,VALID,75.1516,VALID,559.016,VALID,24.4374,VALID,174,VALID,0.304297,
2016-02-01, 09:08:04,VALID,918.332,VALID,0,VALID,76.0207,VALID,543.652,VALID,24.6131,VALID,120,VALID,0,
2016-02-01, 09:09:04,VALID,918.287,VALID,0,VALID,73.5583,VALID,529.255,VALID,24.7321,VALID,136,VALID,0.39375,
2016-02-01, 09:10:04,VALID,918.303,VALID,0,VALID,75.0754,VALID,533.983,VALID,24.7907,VALID,151,VALID,0,
2016-02-01, 09:11:04,VALID,918.298,VALID,0,VALID,76.2265,VALID,525.387,VALID,24.9664,VALID,92,VALID,0,
2016-02-01, 09:12:04,VALID,918.315,VALID,0,VALID,72.3233,VALID,513.569,VALID,25.1226,VALID,45,VALID,0,
2016-02-01, 09:13:04,VALID,918.305,VALID,0,VALID,73.1695,VALID,500.676,VALID,25.1031,VALID,94,VALID,0.765625,
2016-02-01, 09:14:04,VALID,918.307,VALID,0,VALID,72.6435,VALID,495.089,VALID,24.9859,VALID,81,VALID,1.62031,
2016-02-01, 09:15:04,VALID,918.323,VALID,0,VALID,72.7121,VALID,510.668,VALID,24.9078,VALID,49,VALID,0,
2016-02-01, 09:16:04,VALID,918.297,VALID,0,VALID,74.8543,VALID,514.965,VALID,25.025,VALID,52,VALID,1.6918,
2016-02-01, 09:17:04,VALID,918.303,VALID,0,VALID,76.3638,VALID,515.18,VALID,25.1226,VALID,64,VALID,1.05117,
2016-02-01, 09:18:04,VALID,918.347,VALID,0,VALID,74.679,VALID,496.915,VALID,25.1617,VALID,79,VALID,0.00585938,
2016-02-01, 09:19:04,VALID,918.356,VALID,0,VALID,72.4453,VALID,488.535,VALID,25.2203,VALID,115,VALID,0.571484,
2016-02-01, 09:20:04,VALID,918.339,VALID,0,VALID,71.4238,VALID,478.543,VALID,25.2203,VALID,137,VALID,0,
2016-02-01, 09:21:04,VALID,918.347,VALID,0,VALID,73.5355,VALID,483.7,VALID,25.2769,VALID,115,VALID,0,
2016-02-01, 09:22:04,VALID,918.347,VALID,0,VALID,72.4529,VALID,486.064,VALID,25.2788,VALID,93,VALID,1.40859,
2016-02-01, 09:23:04,VALID,918.348,VALID,0,VALID,72.1633,VALID,499.601,VALID,25.2574,VALID,131,VALID,0,
2016-02-01, 09:24:04,VALID,918.373,VALID,0,VALID,69.4493,VALID,511.527,VALID,25.4156,VALID,103,VALID,0.657031,
2016-02-01, 09:25:04,VALID,918.306,VALID,0,VALID,72.7655,VALID,527.429,VALID,25.4136,VALID,60,VALID,0.509766,
2016-02-01, 09:26:04,VALID,918.316,VALID,0,VALID,72.1556,VALID,530.33,VALID,25.5698,VALID,27,VALID,0.185547,
2016-02-01, 09:27:04,VALID,918.31,VALID,0,VALID,70.3031,VALID,530.007,VALID,25.7066,VALID,127,VALID,0,
2016-02-01, 09:28:04,VALID,918.31,VALID,0,VALID,72.7579,VALID,527.966,VALID,25.7847,VALID,39,VALID,0.577734,
2016-02-01, 09:29:04,VALID,918.274,VALID,0,VALID,67.4139,VALID,537.528,VALID,25.8433,VALID,42,VALID,2.88867,
2016-02-01, 09:30:04,VALID,918.288,VALID,0,VALID,70.6996,VALID,545.909,VALID,25.4917,VALID,64,VALID,1.86719,
2016-02-01, 09:31:04,VALID,918.295,VALID,0,VALID,69.03,VALID,554.504,VALID,25.2574,VALID,42,VALID,1.08086,
2016-02-01, 09:32:04,VALID,918.31,VALID,0,VALID,70.5776,VALID,499.494,VALID,25.1988,VALID,33,VALID,1.67891,
2016-02-01, 09:33:04,VALID,918.292,VALID,0,VALID,70.9206,VALID,361.432,VALID,25.2574,VALID,48,VALID,0.580078,
2016-02-01, 09:34:04,VALID,918.305,VALID,0,VALID,69.5942,VALID,265.595,VALID,25.316,VALID,49,VALID,0.00273437,
2016-02-01, 09:35:04,VALID,918.271,VALID,0,VALID,71.2027,VALID,248.941,VALID,25.0993,VALID,107,VALID,1.89727,
2016-02-01, 09:36:04,VALID,918.274,VALID,0,VALID,72.9027,VALID,332.853,VALID,24.9255,VALID,113,VALID,1.48281,
2016-02-01, 09:37:04,VALID,918.286,VALID,0,VALID,74.4427,VALID,514.106,VALID,24.8083,VALID,42,VALID,1.45859,
2016-02-01, 09:38:04,VALID,918.27,VALID,0,VALID,75.6548,VALID,572.339,VALID,24.7869,VALID,38,VALID,0.244531,
2016-02-01, 09:39:04,VALID,918.274,VALID,0,VALID,74.8924,VALID,607.58,VALID,24.8864,VALID,359,VALID,1.47773,
2016-02-01, 09:40:04,VALID,918.27,VALID,0,VALID,74.6409,VALID,581.579,VALID,25.0036,VALID,22,VALID,0.114063,
2016-02-01, 09:41:04,VALID,918.28,VALID,0,VALID,76.2037,VALID,588.133,VALID,25.1774,VALID,39,VALID,0,
2016-02-01, 09:42:04,VALID,918.286,VALID,0,VALID,74.8238,VALID,582.868,VALID,25.5308,VALID,33,VALID,0,
2016-02-01, 09:43:04,VALID,918.263,VALID,0,VALID,69.8762,VALID,595.331,VALID,25.8413,VALID,31,VALID,1.04375,
2016-02-01, 09:44:04,VALID,918.288,VALID,0,VALID,69.396,VALID,595.761,VALID,25.9995,VALID,13,VALID,0.422266,
2016-02-01, 09:45:04,VALID,918.294,VALID,0,VALID,69.5332,VALID,615.423,VALID,25.98,VALID,46,VALID,1.83125,
2016-02-01, 09:46:04,VALID,918.323,VALID,0,VALID,68.5574,VALID,619.076,VALID,25.8608,VALID,41,VALID,0.300781,
2016-02-01, 09:47:04,VALID,918.321,VALID,0,VALID,67.0479,VALID,617.894,VALID,25.8218,VALID,1,VALID,0.0578125,
2016-02-01, 09:48:04,VALID,918.324,VALID,0,VALID,66.7506,VALID,644.217,VALID,25.7241,VALID,274,VALID,0.0148437,
2016-02-01, 09:49:04,VALID,918.319,VALID,0,VALID,66.9412,VALID,650.771,VALID,25.607,VALID,274,VALID,0,
2016-02-01, 09:50:04,VALID,918.346,VALID,0,VALID,67.2462,VALID,630.787,VALID,25.5308,VALID,290,VALID,0,
2016-02-01, 09:51:04,VALID,918.362,VALID,0,VALID,68.504,VALID,540.751,VALID,25.5894,VALID,291,VALID,0,
2016-02-01, 09:52:04,VALID,918.323,VALID,0,VALID,69.7619,VALID,308.571,VALID,25.7651,VALID,290,VALID,0,
2016-02-01, 09:53:04,VALID,918.329,VALID,0,VALID,70.4709,VALID,314.48,VALID,25.9604,VALID,271,VALID,0,
2016-02-01, 09:54:04,VALID,918.351,VALID,0,VALID,70.4327,VALID,657.755,VALID,25.9214,VALID,273,VALID,0,
2016-02-01, 09:55:04,VALID,918.345,VALID,0,VALID,68.4583,VALID,517.114,VALID,25.9019,VALID,269,VALID,0.0449219,
2016-02-01, 09:56:04,VALID,918.345,VALID,0,VALID,70.7758,VALID,696.326,VALID,25.7651,VALID,251,VALID,0,
2016-02-01, 09:57:04,VALID,918.362,VALID,0,VALID,70.9969,VALID,677.309,VALID,25.9019,VALID,360,VALID,0,
2016-02-01, 09:58:04,VALID,918.349,VALID,0,VALID,70.0973,VALID,733.93,VALID,26.0386,VALID,39,VALID,0.0816406,
2016-02-01, 09:59:04,VALID,918.363,VALID,0,VALID,69.1291,VALID,592.108,VALID,26.1928,VALID,58,VALID,0,
2016-02-01, 10:00:04,VALID,918.379,VALID,0,VALID,70.8292,VALID,745.964,VALID,26.5249,VALID,60,VALID,0,
2016-02-01, 10:01:04,VALID,918.414,VALID,0,VALID,68.3058,VALID,735.005,VALID,26.8765,VALID,58,VALID,0,
2016-02-01, 10:02:04,VALID,918.393,VALID,0,VALID,66.4381,VALID,729.311,VALID,27.0153,VALID,58,VALID,0,
2016-02-01, 10:03:04,VALID,918.398,VALID,0,VALID,67.0937,VALID,326.729,VALID,27.0739,VALID,15,VALID,0.388672,
2016-02-01, 10:04:04,VALID,918.399,VALID,0,VALID,66.4457,VALID,270.215,VALID,27.0739,VALID,2,VALID,0,
2016-02-01, 10:05:04,VALID,918.398,VALID,0,VALID,66.5295,VALID,302.339,VALID,26.9958,VALID,350,VALID,0,
2016-02-01, 10:06:04,VALID,918.386,VALID,0,VALID,68.1533,VALID,274.512,VALID,26.857,VALID,360,VALID,0,
2016-02-01, 10:07:04,VALID,918.393,VALID,0,VALID,65.8511,VALID,212.948,VALID,26.7593,VALID,347,VALID,0.0960938,
2016-02-01, 10:08:04,VALID,918.392,VALID,0,VALID,70.3489,VALID,215.312,VALID,26.4878,VALID,346,VALID,0,
2016-02-01, 10:09:04,VALID,918.383,VALID,0,VALID,70.204,VALID,475.105,VALID,26.2339,VALID,346,VALID,0.0328125,
2016-02-01, 10:10:04,VALID,918.394,VALID,0,VALID,67.2385,VALID,704.921,VALID,26.0171,VALID,321,VALID,0.238672,
2016-02-01, 10:11:04,VALID,918.4,VALID,0,VALID,66.7735,VALID,582.331,VALID,25.9194,VALID,20,VALID,0.864453,
2016-02-01, 10:12:04,VALID,918.398,VALID,0,VALID,70.6081,VALID,226.056,VALID,25.9585,VALID,1,VALID,0,
2016-02-01, 10:13:04,VALID,918.412,VALID,0,VALID,68.2906,VALID,231.965,VALID,25.8022,VALID,333,VALID,0,
2016-02-01, 10:14:04,VALID,918.405,VALID,0,VALID,69.3731,VALID,241.635,VALID,25.607,VALID,332,VALID,0,
2016-02-01, 10:15:04,VALID,918.392,VALID,0,VALID,70.852,VALID,247.222,VALID,25.5093,VALID,332,VALID,0,
2016-02-01, 10:16:04,VALID,918.388,VALID,0,VALID,71.4543,VALID,240.668,VALID,25.3922,INVALID,360,VALID,0,
2016-02-01, 10:17:04,VALID,918.417,VALID,0,VALID,73.4211,VALID,389.582,VALID,25.3336,VALID,332,VALID,0,
2016-02-01, 10:18:04,VALID,918.4,VALID,0,VALID,69.983,VALID,262.371,VALID,25.275,VALID,332,VALID,0,
2016-02-01, 10:19:04,VALID,918.422,VALID,0,VALID,69.9906,VALID,503.469,VALID,25.2965,VALID,332,VALID,0,
2016-02-01, 10:20:04,VALID,918.402,VALID,0,VALID,70.5547,VALID,397.64,VALID,25.4117,VALID,332,VALID,0,
2016-02-01, 10:21:04,VALID,918.383,VALID,0,VALID,69.9677,VALID,313.621,VALID,25.646,VALID,332,VALID,0,
2016-02-01, 10:22:04,VALID,918.396,VALID,0,VALID,66.7887,VALID,253.561,VALID,25.8804,VALID,267,VALID,0,
2016-02-01, 10:23:04,VALID,918.412,VALID,0,VALID,64.4636,VALID,227.023,VALID,25.9389,VALID,257,VALID,0,
2016-02-01, 10:24:04,VALID,918.385,VALID,0,VALID,65.2641,VALID,226.701,VALID,25.8608,VALID,251,VALID,0,
2016-02-01, 10:25:04,VALID,918.369,VALID,0,VALID,65.6224,VALID,219.287,VALID,25.8608,VALID,251,VALID,0,
2016-02-01, 10:26:04,VALID,918.388,VALID,0,VALID,69.4646,VALID,208.758,VALID,25.9389,VALID,251,VALID,0,
2016-02-01, 10:27:04,VALID,918.372,VALID,0,VALID,67.9551,VALID,210.262,VALID,26.1538,VALID,166,VALID,0,
2016-02-01, 10:28:04,VALID,918.369,VALID,0,VALID,62.5654,VALID,223.048,VALID,26.2299,VALID,157,VALID,0,
2016-02-01, 10:29:04,VALID,918.394,VALID,0,VALID,63.4344,VALID,209.833,VALID,26.0952,VALID,141,VALID,0,
2016-02-01, 10:30:04,VALID,918.351,VALID,0,VALID,63.5793,VALID,199.088,VALID,26.1928,VALID,141,VALID,0,
2016-02-01, 10:31:04,VALID,918.358,VALID,0,VALID,64.456,VALID,194.361,VALID,26.4077,VALID,141,VALID,0,
2016-02-01, 10:32:04,VALID,918.362,VALID,0,VALID,65.0964,VALID,191.46,VALID,26.2885,VALID,148,VALID,0,
2016-02-01, 10:33:04,VALID,918.311,VALID,0,VALID,64.3874,VALID,193.716,VALID,26.1323,VALID,149,VALID,0.655469,
2016-02-01, 10:34:04,VALID,918.335,VALID,0,VALID,64.8295,VALID,206.824,VALID,26.2124,VALID,129,VALID,0,
2016-02-01, 10:35:04,VALID,918.284,VALID,0,VALID,67.9399,VALID,240.453,VALID,26.5444,VALID,111,VALID,0.0113281,
2016-02-01, 10:36:04,VALID,918.242,VALID,0,VALID,61.6277,VALID,308.356,VALID,26.5815,VALID,61,VALID,0.0929687,
2016-02-01, 10:37:04,VALID,918.243,VALID,0,VALID,62.6187,VALID,408.384,VALID,26.4858,VALID,37,VALID,0,
2016-02-01, 10:38:04,VALID,918.233,VALID,0,VALID,63.2134,VALID,502.61,VALID,26.564,VALID,104,VALID,0.00429688,
2016-02-01, 10:39:04,VALID,918.224,VALID,0,VALID,64.578,VALID,599.844,VALID,26.6246,VALID,137,VALID,0,
2016-02-01, 10:40:04,VALID,918.219,VALID,0,VALID,66.6515,VALID,663.449,VALID,26.6441,VALID,113,VALID,0,
2016-02-01, 10:41:04,VALID,918.219,VALID,0,VALID,61.9174,VALID,673.441,VALID,26.5835,VALID,81,VALID,2.63047,
2016-02-01, 10:42:04,VALID,918.23,VALID,0,VALID,62.1995,VALID,702.343,VALID,26.312,VALID,89,VALID,0,
2016-02-01, 10:43:04,VALID,918.2,VALID,0,VALID,62.39,VALID,710.938,VALID,26.3316,VALID,130,VALID,0,
2016-02-01, 10:44:04,VALID,918.152,VALID,0,VALID,64.1739,VALID,695.359,VALID,26.5074,VALID,30,VALID,1.42578,
2016-02-01, 10:45:04,VALID,918.141,VALID,0,VALID,63.3658,VALID,732.534,VALID,26.5269,VALID,19,VALID,1.33242,
2016-02-01, 10:46:04,VALID,918.144,VALID,0,VALID,64.5703,VALID,309.753,VALID,26.6226,VALID,5,VALID,0,
2016-02-01, 10:47:04,VALID,918.125,VALID,0,VALID,63.7013,VALID,312.439,VALID,26.8765,INVALID,360,VALID,0,
2016-02-01, 10:48:04,VALID,918.14,VALID,0,VALID,62.39,VALID,381.416,VALID,27.0935,VALID,347,VALID,0.0265625,
2016-02-01, 10:49:04,VALID,918.154,VALID,0,VALID,60.9111,VALID,383.565,VALID,27.0719,INVALID,360,VALID,0,
2016-02-01, 10:50:04,VALID,918.132,VALID,0,VALID,61.7192,VALID,383.243,VALID,26.8765,INVALID,360,VALID,0,
2016-02-01, 10:51:04,VALID,918.163,VALID,0,VALID,64.4484,VALID,676.235,VALID,26.859,VALID,347,VALID,0.000390625,
2016-02-01, 10:52:04,VALID,918.177,VALID,0,VALID,62.9161,VALID,377.226,VALID,26.9742,VALID,20,VALID,0.126563,
2016-02-01, 10:53:04,VALID,918.167,VALID,0,VALID,61.6429,VALID,759.394,VALID,26.896,VALID,59,VALID,1.41797,
2016-02-01, 10:54:04,VALID,918.173,VALID,0,VALID,62.7178,VALID,753.162,VALID,26.6401,VALID,54,VALID,0.696094,
2016-02-01, 10:55:04,VALID,918.209,VALID,0,VALID,63.1524,VALID,782.816,VALID,26.6791,VALID,39,VALID,0,
2016-02-01, 10:56:04,VALID,918.198,VALID,0,VALID,60.0878,VALID,516.792,VALID,26.7182,VALID,28,VALID,0.367969,
2016-02-01, 10:57:04,VALID,918.201,VALID,0,VALID,62.3824,VALID,413.863,VALID,26.601,VALID,5,VALID,0.0550781,
2016-02-01, 10:58:04,VALID,918.214,VALID,0,VALID,62.2986,VALID,301.372,VALID,26.4643,VALID,19,VALID,0.926953,
2016-02-01, 10:59:04,VALID,918.188,VALID,0,VALID,64.334,VALID,440.079,VALID,26.2885,VALID,15,VALID,2.53008,
2016-02-01, 11:00:04,VALID,918.214,VALID,0,VALID,63.6708,VALID,257.322,VALID,26.0151,VALID,64,VALID,2.02109,
2016-02-01, 11:01:04,VALID,918.228,VALID,0,VALID,64.1663,VALID,238.842,VALID,25.8784,VALID,73,VALID,0,
2016-02-01, 11:02:04,VALID,918.209,VALID,0,VALID,64.8676,VALID,249.049,VALID,25.8979,VALID,73,VALID,0,
2016-02-01, 11:03:04,VALID,918.208,VALID,0,VALID,65.0506,VALID,287.835,VALID,25.9565,VALID,73,VALID,0,
2016-02-01, 11:04:04,VALID,918.144,VALID,0,VALID,67.8332,VALID,297.719,VALID,25.9389,VALID,46,VALID,1.46758,
2016-02-01, 11:05:04,VALID,918.195,VALID,0,VALID,67.6578,VALID,392.16,VALID,25.8999,VALID,12,VALID,1.60703,
2016-02-01, 11:06:04,VALID,918.164,VALID,0,VALID,65.5995,VALID,670.755,VALID,25.8999,VALID,340,VALID,0,
2016-02-01, 11:07:04,VALID,918.135,VALID,0,VALID,67.0327,VALID,780.345,VALID,26.0757,VALID,345,VALID,0,
2016-02-01, 11:08:04,VALID,918.163,VALID,0,VALID,67.1013,VALID,787.651,VALID,26.2905,VALID,13,VALID,1.42344,
2016-02-01, 11:09:04,VALID,918.13,VALID,0,VALID,63.0609,VALID,741.774,VALID,26.3471,VALID,63,VALID,0.966016,
2016-02-01, 11:10:04,VALID,918.157,VALID,0,VALID,63.564,VALID,463.931,VALID,26.4468,VALID,31,VALID,0.965625,
2016-02-01, 11:11:04,VALID,918.15,VALID,0,VALID,62.634,VALID,765.733,VALID,26.3296,VALID,66,VALID,1.41211,
2016-02-01, 11:12:04,VALID,918.13,VALID,0,VALID,64.3493,VALID,747.576,VALID,26.308,VALID,36,VALID,1.85898,
2016-02-01, 11:13:04,VALID,918.122,VALID,0,VALID,62.695,VALID,339.836,VALID,26.3491,VALID,37,VALID,2.04258,
2016-02-01, 11:14:04,VALID,918.122,VALID,0,VALID,63.8004,VALID,528.825,VALID,26.3276,VALID,30,VALID,0,
2016-02-01, 11:15:04,VALID,918.115,VALID,0,VALID,63.6098,VALID,353.052,VALID,26.4252,VALID,41,VALID,0.567578,
2016-02-01, 11:16:04,VALID,918.121,VALID,0,VALID,64.578,VALID,639.812,VALID,26.5054,VALID,37,VALID,0,
2016-02-01, 11:17:04,VALID,918.143,VALID,0,VALID,65.4547,VALID,704.921,VALID,26.6791,VALID,53,VALID,0,
2016-02-01, 11:18:04,VALID,918.139,VALID,0,VALID,60.5909,VALID,768.849,VALID,26.9721,VALID,328,VALID,0,
2016-02-01, 11:19:04,VALID,918.137,VALID,0,VALID,60.873,VALID,823.644,VALID,27.0503,VALID,328,VALID,0,
2016-02-01, 11:20:04,VALID,918.131,VALID,0,VALID,63.099,VALID,698.582,VALID,27.1675,VALID,60,VALID,0.227344,
2016-02-01, 11:21:04,VALID,918.114,VALID,0,VALID,59.394,VALID,791.304,VALID,27.0914,VALID,57,VALID,0,
2016-02-01, 11:22:04,VALID,918.11,VALID,0,VALID,60.0725,VALID,791.411,VALID,27.0307,VALID,78,VALID,0,